UTC,SampNum,MM/DD/YYYY,HH:MM:SS,VbatMain,VbiasPos,VbiasNeg,TC_cont,Humidity,Vrse,Vrse_std,Vk,Vk_std,Ik,Ib,Opt_PN,Opt_SN,Moxy,O2satper,TC_opt,Dphase,Bphase,Rphase,Bamp,Bpot,Ramp,Opt_rawtemp,TC_MCat,Cond,Pres,pSal,day_MC,month_MC,year_MC,time_MC,pH,CHa,NTU,flow,unix_time,TC_cont_flg,Moxy_flg,O2satper_flg,pSal_flg,pH_flg,CHa_flg,NTU_flg
2023-10-01 00:00:02+00:00,,,,,,,,,,,,,,,,,,,,,,,,,,,,,,,,,,,,2.38,2.41,6.68,1696118402,9,9,9,9,9,2,1
2023-10-01 00:20:03+00:00,,,,,,,,,,,,,,,,,,,,,,,,,,,,,,,,,,,,2.25,2.41,6.62666666666667,1696119603,9,9,9,9,9,2,1
2023-10-01 00:40:02+00:00,,,,,,,,,,,,,,,,,,,,,,,,,,,,,,,,,,,,2.44,4.09,6.62666666666667,1696120802,9,9,9,9,9,2,1
2023-10-01 01:00:02+00:00,,,,,,,,,,,,,,,,,,,,,,,,,,,,,,,,,,,,3.71,-0.24,6.62666666666667,1696122002,9,9,9,9,9,2,4
2023-10-01 01:20:02+00:00,,,,,,,,,,,,,,,,,,,,,,,,,,,,,,,,,,,,3.65,2.89,6.61333333333333,1696123202,9,9,9,9,9,2,1
2023-10-01 01:40:02+00:00,,,,,,,,,,,,,,,,,,,,,,,,,,,,,,,,,,,,4.02,0,6.64,1696124402,9,9,9,9,9,2,4
2023-10-01 02:00:02+00:00,,,,,,,,,,,,,,,,,,,,,,,,,,,,,,,,,,,,3.29,2.65,6.66666666666667,1696125602,9,9,9,9,9,2,1
2023-10-01 02:20:02+00:00,,,,,,,,,,,,,,,,,,,,,,,,,,,,,,,,,,,,3.35,2.41,6.65333333333333,1696126802,9,9,9,9,9,2,1
2023-10-01 02:40:02+00:00,,,,,,,,,,,,,,,,,,,,,,,,,,,,,,,,,,,,3.23,2.17,6.68,1696128002,9,9,9,9,9,2,1
2023-10-01 03:00:02+00:00,,,,,,,,,,,,,,,,,,,,,,,,,,,,,,,,,,,,3.35,2.17,6.69333333333333,1696129202,9,9,9,9,9,2,1
2023-10-01 03:20:02+00:00,,,,,,,,,,,,,,,,,,,,,,,,,,,,,,,,,,,,3.11,2.41,6.73333333333333,1696130402,9,9,9,9,9,2,1
2023-10-01 03:40:02+00:00,,,,,,,,,,,,,,,,,,,,,,,,,,,,,,,,,,,,2.74,2.41,6.70666666666667,1696131602,9,9,9,9,9,2,1
2023-10-01 04:00:02+00:00,,,,,,,,,,,,,,,,,,,,,,,,,,,,,,,,,,,,2.92,2.41,6.70666666666667,1696132802,9,9,9,9,9,2,1
2023-10-01 04:20:02+00:00,,,,,,,,,,,,,,,,,,,,,,,,,,,,,,,,,,,,3.04,2.41,6.73333333333333,1696134002,9,9,9,9,9,2,1
2023-10-01 04:40:02+00:00,,,,,,,,,,,,,,,,,,,,,,,,,,,,,,,,,,,,2.86,2.41,6.76,1696135202,9,9,9,9,9,2,1
2023-10-01 05:00:02+00:00,,,,,,,,,,,,,,,,,,,,,,,,,,,,,,,,,,,,2.5,2.41,6.72,1696136402,9,9,9,9,9,2,1
2023-10-01 05:20:02+00:00,,,,,,,,,,,,,,,,,,,,,,,,,,,,,,,,,,,,2.31,2.65,6.73333333333333,1696137602,9,9,9,9,9,2,1
2023-10-01 05:40:02+00:00,,,,,,,,,,,,,,,,,,,,,,,,,,,,,,,,,,,,2.13,2.41,6.72,1696138802,9,9,9,9,9,2,1
2023-10-01 06:00:02+00:00,,,,,,,,,,,,,,,,,,,,,,,,,,,,,,,,,,,,2.01,2.41,6.72,1696140002,9,9,9,9,9,2,1
2023-10-01 06:20:01+00:00,,,,,,,,,,,,,,,,,,,,,,,,,,,,,,,,,,,,2.01,2.41,6.73333333333333,1696141201,9,9,9,9,9,2,1
2023-10-01 06:40:02+00:00,,,,,,,,,,,,,,,,,,,,,,,,,,,,,,,,,,,,1.89,2.41,6.72,1696142402,9,9,9,9,9,2,1
2023-10-01 07:00:02+00:00,,,,,,,,,,,,,,,,,,,,,,,,,,,,,,,,,,,,2.07,2.41,6.70666666666667,1696143602,9,9,9,9,9,2,1
2023-10-01 07:20:02+00:00,,,,,,,,,,,,,,,,,,,,,,,,,,,,,,,,,,,,2.86,1.93,6.72,1696144802,9,9,9,9,9,2,1
2023-10-01 07:40:02+00:00,,,,,,,,,,,,,,,,,,,,,,,,,,,,,,,,,,,,2.44,2.65,6.69333333333333,1696146002,9,9,9,9,9,2,1
2023-10-01 08:00:02+00:00,,,,,,,,,,,,,,,,,,,,,,,,,,,,,,,,,,,,2.5,2.41,6.72,1696147202,9,9,9,9,9,2,1
2023-10-01 08:20:02+00:00,,,,,,,,,,,,,,,,,,,,,,,,,,,,,,,,,,,,2.19,2.41,6.73333333333333,1696148402,9,9,9,9,9,2,1
2023-10-01 08:40:02+00:00,,,,,,,,,,,,,,,,,,,,,,,,,,,,,,,,,,,,1.89,2.41,6.73333333333333,1696149602,9,9,9,9,9,2,1
2023-10-01 09:00:02+00:00,,,,,,,,,,,,,,,,,,,,,,,,,,,,,,,,,,,,1.77,2.65,6.73333333333333,1696150802,9,9,9,9,9,2,1
2023-10-01 09:20:02+00:00,,,,,,,,,,,,,,,,,,,,,,,,,,,,,,,,,,,,2.01,2.41,6.72,1696152002,9,9,9,9,9,2,1
2023-10-01 09:40:02+00:00,,,,,,,,,,,,,,,,,,,,,,,,,,,,,,,,,,,,1.95,2.41,6.76,1696153202,9,9,9,9,9,2,1
2023-10-01 10:00:02+00:00,,,,,,,,,,,,,,,,,,,,,,,,,,,,,,,,,,,,1.89,2.65,6.72,1696154402,9,9,9,9,9,2,1
2023-10-01 10:20:02+00:00,,,,,,,,,,,,,,,,,,,,,,,,,,,,,,,,,,,,1.77,2.65,6.68,1696155602,9,9,9,9,9,2,1
2023-10-01 10:40:02+00:00,,,,,,,,,,,,,,,,,,,,,,,,,,,,,,,,,,,,1.64,2.65,6.66666666666667,1696156802,9,9,9,9,9,2,1
2023-10-01 11:00:02+00:00,,,,,,,,,,,,,,,,,,,,,,,,,,,,,,,,,,,,1.4,2.89,6.68,1696158002,9,9,9,9,9,2,1
2023-10-01 11:20:02+00:00,,,,,,,,,,,,,,,,,,,,,,,,,,,,,,,,,,,,1.28,2.89,6.65333333333333,1696159202,9,9,9,9,9,2,1
2023-10-01 11:40:02+00:00,,,,,,,,,,,,,,,,,,,,,,,,,,,,,,,,,,,,1.46,2.65,6.65333333333333,1696160402,9,9,9,9,9,2,1
2023-10-01 12:00:01+00:00,,,,,,,,,,,,,,,,,,,,,,,,,,,,,,,,,,,,1.46,2.65,6.64,1696161601,9,9,9,9,9,2,1
2023-10-01 12:20:02+00:00,,,,,,,,,,,,,,,,,,,,,,,,,,,,,,,,,,,,1.46,2.65,6.65333333333333,1696162802,9,9,9,9,9,2,1
2023-10-01 12:40:02+00:00,,,,,,,,,,,,,,,,,,,,,,,,,,,,,,,,,,,,1.58,2.41,6.62666666666667,1696164002,9,9,9,9,9,2,1
2023-10-01 13:00:02+00:00,,,,,,,,,,,,,,,,,,,,,,,,,,,,,,,,,,,,1.58,2.41,6.64,1696165202,9,9,9,9,9,2,1
2023-10-01 13:20:02+00:00,,,,,,,,,,,,,,,,,,,,,,,,,,,,,,,,,,,,1.46,2.41,6.64,1696166402,9,9,9,9,9,2,1
2023-10-01 13:40:02+00:00,,,,,,,,,,,,,,,,,,,,,,,,,,,,,,,,,,,,1.64,2.17,6.6,1696167602,9,9,9,9,9,2,1
2023-10-01 14:00:02+00:00,,,,,,,,,,,,,,,,,,,,,,,,,,,,,,,,,,,,2.44,-0.24,6.61333333333333,1696168802,9,9,9,9,9,2,4
2023-10-01 14:20:02+00:00,,,,,,,,,,,,,,,,,,,,,,,,,,,,,,,,,,,,2.38,0.72,6.62666666666667,1696170002,9,9,9,9,9,2,1
2023-10-01 14:40:02+00:00,,,,,,,,,,,,,,,,,,,,,,,,,,,,,,,,,,,,1.34,2.65,6.6,1696171202,9,9,9,9,9,2,1
2023-10-01 15:00:02+00:00,,,,,,,,,,,,,,,,,,,,,,,,,,,,,,,,,,,,1.34,2.65,6.61333333333333,1696172402,9,9,9,9,9,2,1
2023-10-01 15:20:02+00:00,,,,,,,,,,,,,,,,,,,,,,,,,,,,,,,,,,,,1.28,2.41,6.61333333333333,1696173602,9,9,9,9,9,2,1
2023-10-01 15:40:02+00:00,,,,,,,,,,,,,,,,,,,,,,,,,,,,,,,,,,,,1.22,2.65,6.65333333333333,1696174802,9,9,9,9,9,2,1
2023-10-01 16:00:02+00:00,,,,,,,,,,,,,,,,,,,,,,,,,,,,,,,,,,,,1.28,2.65,6.64,1696176002,9,9,9,9,9,2,1
2023-10-01 16:20:02+00:00,,,,,,,,,,,,,,,,,,,,,,,,,,,,,,,,,,,,0.91,4.82,6.65333333333333,1696177202,9,9,9,9,9,2,1
2023-10-01 16:40:02+00:00,,,,,,,,,,,,,,,,,,,,,,,,,,,,,,,,,,,,1.58,2.41,6.57333333333333,1696178402,9,9,9,9,9,2,1
2023-10-01 17:00:02+00:00,,,,,,,,,,,,,,,,,,,,,,,,,,,,,,,,,,,,1.22,2.89,6.6,1696179602,9,9,9,9,9,2,1
2023-10-01 17:20:01+00:00,,,,,,,,,,,,,,,,,,,,,,,,,,,,,,,,,,,,0.85,2.65,6.62666666666667,1696180801,9,9,9,9,9,2,1
2023-10-01 17:40:02+00:00,,,,,,,,,,,,,,,,,,,,,,,,,,,,,,,,,,,,0.97,2.65,6.62666666666667,1696182002,9,9,9,9,9,2,1
2023-10-01 18:00:02+00:00,,,,,,,,,,,,,,,,,,,,,,,,,,,,,,,,,,,,0.73,2.65,6.58666666666667,1696183202,9,9,9,9,9,2,1
2023-10-01 18:20:02+00:00,,,,,,,,,,,,,,,,,,,,,,,,,,,,,,,,,,,,0.61,2.65,6.62666666666667,1696184402,9,9,9,9,9,2,1
2023-10-01 18:40:02+00:00,,,,,,,,,,,,,,,,,,,,,,,,,,,,,,,,,,,,0.61,2.65,6.64,1696185602,9,9,9,9,9,2,1
2023-10-01 19:00:01+00:00,,,,,,,,,,,,,,,,,,,,,,,,,,,,,,,,,,,,0.55,2.65,6.61333333333333,1696186801,9,9,9,9,9,2,1
2023-10-01 19:20:02+00:00,,,,,,,,,,,,,,,,,,,,,,,,,,,,,,,,,,,,0.49,2.65,6.61333333333333,1696188002,9,9,9,9,9,2,1
2023-10-01 19:40:01+00:00,,,,,,,,,,,,,,,,,,,,,,,,,,,,,,,,,,,,0.49,2.65,6.62666666666667,1696189201,9,9,9,9,9,2,1
2023-10-01 20:00:02+00:00,,,,,,,,,,,,,,,,,,,,,,,,,,,,,,,,,,,,0.43,2.65,6.6,1696190402,9,9,9,9,9,2,1
2023-10-01 20:20:02+00:00,,,,,,,,,,,,,,,,,,,,,,,,,,,,,,,,,,,,0.49,2.65,6.58666666666667,1696191602,9,9,9,9,9,2,1
2023-10-01 20:40:02+00:00,,,,,,,,,,,,,,,,,,,,,,,,,,,,,,,,,,,,0.49,2.65,6.57333333333333,1696192802,9,9,9,9,9,2,1
2023-10-01 21:00:02+00:00,,,,,,,,,,,,,,,,,,,,,,,,,,,,,,,,,,,,-0.43,4.33,6.58666666666667,1696194002,9,9,9,9,9,4,1
2023-10-01 21:20:02+00:00,,,,,,,,,,,,,,,,,,,,,,,,,,,,,,,,,,,,0.24,3.85,6.58666666666667,1696195202,9,9,9,9,9,2,1
2023-10-01 21:40:02+00:00,,,,,,,,,,,,,,,,,,,,,,,,,,,,,,,,,,,,0.06,5.06,6.57333333333333,1696196402,9,9,9,9,9,2,1
2023-10-01 22:00:02+00:00,,,,,,,,,,,,,,,,,,,,,,,,,,,,,,,,,,,,0.06,3.85,6.57333333333333,1696197602,9,9,9,9,9,2,1
2023-10-01 22:20:02+00:00,,,,,,,,,,,,,,,,,,,,,,,,,,,,,,,,,,,,1.04,3.13,6.58666666666667,1696198802,9,9,9,9,9,2,1
2023-10-01 22:40:02+00:00,,,,,,,,,,,,,,,,,,,,,,,,,,,,,,,,,,,,1.16,2.41,6.58666666666667,1696200002,9,9,9,9,9,2,1
2023-10-01 23:00:02+00:00,,,,,,,,,,,,,,,,,,,,,,,,,,,,,,,,,,,,1.4,2.41,6.58666666666667,1696201202,9,9,9,9,9,2,1
2023-10-01 23:20:02+00:00,,,,,,,,,,,,,,,,,,,,,,,,,,,,,,,,,,,,1.64,2.17,6.61333333333333,1696202402,9,9,9,9,9,2,1
2023-10-01 23:40:02+00:00,,,,,,,,,,,,,,,,,,,,,,,,,,,,,,,,,,,,1.64,2.17,6.58666666666667,1696203602,9,9,9,9,9,2,1
2023-10-02 00:00:02+00:00,,,,,,,,,,,,,,,,,,,,,,,,,,,,,,,,,,,,1.71,2.41,6.58666666666667,1696204802,9,9,9,9,9,2,1
2023-10-02 00:20:02+00:00,,,,,,,,,,,,,,,,,,,,,,,,,,,,,,,,,,,,1.52,2.17,6.54666666666667,1696206002,9,9,9,9,9,2,1
2023-10-02 00:40:02+00:00,,,,,,,,,,,,,,,,,,,,,,,,,,,,,,,,,,,,1.71,2.41,6.56,1696207202,9,9,9,9,9,2,1
2023-10-02 01:00:02+00:00,,,,,,,,,,,,,,,,,,,,,,,,,,,,,,,,,,,,1.52,2.41,6.54666666666667,1696208402,9,9,9,9,9,2,1
2023-10-02 01:20:02+00:00,,,,,,,,,,,,,,,,,,,,,,,,,,,,,,,,,,,,1.89,1.93,6.54666666666667,1696209602,9,9,9,9,9,2,1
2023-10-02 01:40:02+00:00,,,,,,,,,,,,,,,,,,,,,,,,,,,,,,,,,,,,1.64,2.17,6.56,1696210802,9,9,9,9,9,2,1
2023-10-02 02:00:02+00:00,,,,,,,,,,,,,,,,,,,,,,,,,,,,,,,,,,,,1.58,2.41,6.54666666666667,1696212002,9,9,9,9,9,2,1
2023-10-02 02:20:02+00:00,,,,,,,,,,,,,,,,,,,,,,,,,,,,,,,,,,,,0.97,2.89,6.54666666666667,1696213202,9,9,9,9,9,2,1
2023-10-02 02:40:02+00:00,,,,,,,,,,,,,,,,,,,,,,,,,,,,,,,,,,,,1.16,2.65,6.56,1696214402,9,9,9,9,9,2,1
2023-10-02 03:00:02+00:00,,,,,,,,,,,,,,,,,,,,,,,,,,,,,,,,,,,,1.22,2.41,6.54666666666667,1696215602,9,9,9,9,9,2,1
2023-10-02 03:20:02+00:00,,,,,,,,,,,,,,,,,,,,,,,,,,,,,,,,,,,,1.22,2.41,6.53333333333333,1696216802,9,9,9,9,9,2,1
2023-10-02 03:40:02+00:00,,,,,,,,,,,,,,,,,,,,,,,,,,,,,,,,,,,,1.22,2.41,6.58666666666667,1696218002,9,9,9,9,9,2,1
2023-10-02 04:00:01+00:00,,,,,,,,,,,,,,,,,,,,,,,,,,,,,,,,,,,,1.16,2.41,6.57333333333333,1696219201,9,9,9,9,9,2,1
2023-10-02 04:20:02+00:00,,,,,,,,,,,,,,,,,,,,,,,,,,,,,,,,,,,,1.52,2.41,6.57333333333333,1696220402,9,9,9,9,9,2,1
2023-10-02 04:40:02+00:00,,,,,,,,,,,,,,,,,,,,,,,,,,,,,,,,,,,,1.34,2.41,6.58666666666667,1696221602,9,9,9,9,9,2,1
2023-10-02 05:00:02+00:00,,,,,,,,,,,,,,,,,,,,,,,,,,,,,,,,,,,,1.16,2.41,6.54666666666667,1696222802,9,9,9,9,9,2,1
2023-10-02 05:20:01+00:00,,,,,,,,,,,,,,,,,,,,,,,,,,,,,,,,,,,,0.97,2.41,6.54666666666667,1696224001,9,9,9,9,9,2,1
2023-10-02 05:40:02+00:00,,,,,,,,,,,,,,,,,,,,,,,,,,,,,,,,,,,,1.16,2.65,6.50666666666667,1696225202,9,9,9,9,9,2,1
2023-10-02 06:00:01+00:00,,,,,,,,,,,,,,,,,,,,,,,,,,,,,,,,,,,,1.1,2.65,6.49333333333333,1696226401,9,9,9,9,9,2,1
2023-10-02 06:20:02+00:00,,,,,,,,,,,,,,,,,,,,,,,,,,,,,,,,,,,,0.91,2.65,6.52,1696227602,9,9,9,9,9,2,1
2023-10-02 06:40:02+00:00,,,,,,,,,,,,,,,,,,,,,,,,,,,,,,,,,,,,0.73,1.93,6.54666666666667,1696228802,9,9,9,9,9,2,1
2023-10-02 07:00:02+00:00,,,,,,,,,,,,,,,,,,,,,,,,,,,,,,,,,,,,-0.24,3.85,6.52,1696230002,9,9,9,9,9,4,1
2023-10-02 07:20:02+00:00,,,,,,,,,,,,,,,,,,,,,,,,,,,,,,,,,,,,0.55,2.65,6.54666666666667,1696231202,9,9,9,9,9,2,1
2023-10-02 07:40:02+00:00,,,,,,,,,,,,,,,,,,,,,,,,,,,,,,,,,,,,0.67,2.65,6.49333333333333,1696232402,9,9,9,9,9,2,1
2023-10-02 08:00:02+00:00,,,,,,,,,,,,,,,,,,,,,,,,,,,,,,,,,,,,0.43,3.37,6.50666666666667,1696233602,9,9,9,9,9,2,1
2023-10-02 08:20:02+00:00,,,,,,,,,,,,,,,,,,,,,,,,,,,,,,,,,,,,0.67,2.65,6.53333333333333,1696234802,9,9,9,9,9,2,1
2023-10-02 08:40:02+00:00,,,,,,,,,,,,,,,,,,,,,,,,,,,,,,,,,,,,0.73,2.65,6.56,1696236002,9,9,9,9,9,2,1
2023-10-02 09:00:02+00:00,,,,,,,,,,,,,,,,,,,,,,,,,,,,,,,,,,,,0.61,2.65,6.52,1696237202,9,9,9,9,9,2,1
2023-10-02 09:20:02+00:00,,,,,,,,,,,,,,,,,,,,,,,,,,,,,,,,,,,,0.73,2.65,6.53333333333333,1696238402,9,9,9,9,9,2,1
2023-10-02 09:40:02+00:00,,,,,,,,,,,,,,,,,,,,,,,,,,,,,,,,,,,,0.79,2.17,6.57333333333333,1696239602,9,9,9,9,9,2,1
2023-10-02 10:00:02+00:00,,,,,,,,,,,,,,,,,,,,,,,,,,,,,,,,,,,,0.37,2.89,6.54666666666667,1696240802,9,9,9,9,9,2,1
2023-10-02 10:20:02+00:00,,,,,,,,,,,,,,,,,,,,,,,,,,,,,,,,,,,,0.24,4.82,6.54666666666667,1696242002,9,9,9,9,9,2,1
2023-10-02 10:40:02+00:00,,,,,,,,,,,,,,,,,,,,,,,,,,,,,,,,,,,,0.61,2.65,6.54666666666667,1696243202,9,9,9,9,9,2,1
2023-10-02 11:00:02+00:00,,,,,,,,,,,,,,,,,,,,,,,,,,,,,,,,,,,,0.67,2.41,6.54666666666667,1696244402,9,9,9,9,9,2,1
2023-10-02 11:20:02+00:00,,,,,,,,,,,,,,,,,,,,,,,,,,,,,,,,,,,,0.73,2.41,6.53333333333333,1696245602,9,9,9,9,9,2,1
2023-10-02 11:40:01+00:00,,,,,,,,,,,,,,,,,,,,,,,,,,,,,,,,,,,,0.85,2.41,6.54666666666667,1696246801,9,9,9,9,9,2,1
2023-10-02 12:00:02+00:00,,,,,,,,,,,,,,,,,,,,,,,,,,,,,,,,,,,,1.16,2.41,6.56,1696248002,9,9,9,9,9,2,1
2023-10-02 12:20:02+00:00,,,,,,,,,,,,,,,,,,,,,,,,,,,,,,,,,,,,1.34,2.41,6.57333333333333,1696249202,9,9,9,9,9,2,1
2023-10-02 12:40:02+00:00,,,,,,,,,,,,,,,,,,,,,,,,,,,,,,,,,,,,1.4,2.41,6.6,1696250402,9,9,9,9,9,2,1
2023-10-02 13:00:02+00:00,,,,,,,,,,,,,,,,,,,,,,,,,,,,,,,,,,,,1.46,2.41,6.61333333333333,1696251602,9,9,9,9,9,2,1
2023-10-02 13:20:02+00:00,,,,,,,,,,,,,,,,,,,,,,,,,,,,,,,,,,,,1.46,2.41,6.62666666666667,1696252802,9,9,9,9,9,2,1
2023-10-02 13:40:02+00:00,,,,,,,,,,,,,,,,,,,,,,,,,,,,,,,,,,,,1.64,2.17,6.62666666666667,1696254002,9,9,9,9,9,2,1
2023-10-02 14:00:02+00:00,,,,,,,,,,,,,,,,,,,,,,,,,,,,,,,,,,,,1.71,2.17,6.61333333333333,1696255202,9,9,9,9,9,2,1
2023-10-02 14:20:02+00:00,,,,,,,,,,,,,,,,,,,,,,,,,,,,,,,,,,,,1.77,2.41,6.62666666666667,1696256402,9,9,9,9,9,2,1
2023-10-02 14:40:02+00:00,,,,,,,,,,,,,,,,,,,,,,,,,,,,,,,,,,,,1.77,2.41,6.62666666666667,1696257602,9,9,9,9,9,2,1
2023-10-02 15:00:02+00:00,,,,,,,,,,,,,,,,,,,,,,,,,,,,,,,,,,,,1.77,2.41,6.62666666666667,1696258802,9,9,9,9,9,2,1
2023-10-02 15:20:02+00:00,,,,,,,,,,,,,,,,,,,,,,,,,,,,,,,,,,,,1.77,2.41,6.69333333333333,1696260002,9,9,9,9,9,2,1
2023-10-02 15:40:02+00:00,,,,,,,,,,,,,,,,,,,,,,,,,,,,,,,,,,,,1.4,2.41,6.58666666666667,1696261202,9,9,9,9,9,2,1
2023-10-02 16:00:02+00:00,,,,,,,,,,,,,,,,,,,,,,,,,,,,,,,,,,,,1.16,2.41,6.61333333333333,1696262402,9,9,9,9,9,2,1
2023-10-02 16:20:02+00:00,,,,,,,,,,,,,,,,,,,,,,,,,,,,,,,,,,,,1.04,2.41,6.62666666666667,1696263602,9,9,9,9,9,2,1
2023-10-02 16:40:02+00:00,,,,,,,,,,,,,,,,,,,,,,,,,,,,,,,,,,,,0.97,2.41,6.66666666666667,1696264802,9,9,9,9,9,2,1
2023-10-02 17:00:02+00:00,,,,,,,,,,,,,,,,,,,,,,,,,,,,,,,,,,,,0.97,2.41,6.66666666666667,1696266002,9,9,9,9,9,2,1
2023-10-02 17:20:02+00:00,,,,,,,,,,,,,,,,,,,,,,,,,,,,,,,,,,,,0.91,2.41,6.68,1696267202,9,9,9,9,9,2,1
2023-10-02 17:40:02+00:00,,,,,,,,,,,,,,,,,,,,,,,,,,,,,,,,,,,,0.79,2.17,6.68,1696268402,9,9,9,9,9,2,1
2023-10-02 18:00:02+00:00,,,,,,,,,,,,,,,,,,,,,,,,,,,,,,,,,,,,1.04,2.17,6.66666666666667,1696269602,9,9,9,9,9,2,1
2023-10-02 18:20:02+00:00,,,,,,,,,,,,,,,,,,,,,,,,,,,,,,,,,,,,1.04,2.17,6.65333333333333,1696270802,9,9,9,9,9,2,1
2023-10-02 18:40:02+00:00,,,,,,,,,,,,,,,,,,,,,,,,,,,,,,,,,,,,0.97,2.17,6.49333333333333,1696272002,9,9,9,9,9,2,1
2023-10-02 19:00:02+00:00,,,,,,,,,,,,,,,,,,,,,,,,,,,,,,,,,,,,0.91,2.17,6.64,1696273202,9,9,9,9,9,2,1
2023-10-02 19:20:02+00:00,,,,,,,,,,,,,,,,,,,,,,,,,,,,,,,,,,,,0.79,2.17,6.64,1696274402,9,9,9,9,9,2,1
2023-10-02 19:40:02+00:00,,,,,,,,,,,,,,,,,,,,,,,,,,,,,,,,,,,,1.22,3.13,6.64,1696275602,9,9,9,9,9,2,1
2023-10-02 20:00:02+00:00,,,,,,,,,,,,,,,,,,,,,,,,,,,,,,,,,,,,1.16,3.37,6.62666666666667,1696276802,9,9,9,9,9,2,1
2023-10-02 20:20:02+00:00,,,,,,,,,,,,,,,,,,,,,,,,,,,,,,,,,,,,1.28,3.37,6.61333333333333,1696278002,9,9,9,9,9,2,1
2023-10-02 20:40:02+00:00,,,,,,,,,,,,,,,,,,,,,,,,,,,,,,,,,,,,1.22,3.13,6.62666666666667,1696279202,9,9,9,9,9,2,1
2023-10-02 21:00:02+00:00,,,,,,,,,,,,,,,,,,,,,,,,,,,,,,,,,,,,1.1,3.37,6.61333333333333,1696280402,9,9,9,9,9,2,1
2023-10-02 21:20:02+00:00,,,,,,,,,,,,,,,,,,,,,,,,,,,,,,,,,,,,1.16,2.89,6.61333333333333,1696281602,9,9,9,9,9,2,1
2023-10-02 21:40:02+00:00,,,,,,,,,,,,,,,,,,,,,,,,,,,,,,,,,,,,1.1,3.13,6.6,1696282802,9,9,9,9,9,2,1
2023-10-02 22:00:02+00:00,,,,,,,,,,,,,,,,,,,,,,,,,,,,,,,,,,,,0.91,3.61,6.61333333333333,1696284002,9,9,9,9,9,2,1
2023-10-02 22:20:02+00:00,,,,,,,,,,,,,,,,,,,,,,,,,,,,,,,,,,,,1.34,2.89,6.58666666666667,1696285202,9,9,9,9,9,2,1
2023-10-02 22:40:02+00:00,,,,,,,,,,,,,,,,,,,,,,,,,,,,,,,,,,,,1.1,3.37,6.6,1696286402,9,9,9,9,9,2,1
2023-10-02 23:00:02+00:00,,,,,,,,,,,,,,,,,,,,,,,,,,,,,,,,,,,,0.06,6.02,6.57333333333333,1696287602,9,9,9,9,9,2,1
2023-10-02 23:20:02+00:00,,,,,,,,,,,,,,,,,,,,,,,,,,,,,,,,,,,,1.16,3.13,6.53333333333333,1696288802,9,9,9,9,9,2,1
2023-10-02 23:40:02+00:00,,,,,,,,,,,,,,,,,,,,,,,,,,,,,,,,,,,,1.1,3.61,6.49333333333333,1696290002,9,9,9,9,9,2,1
2023-10-03 00:00:03+00:00,,,,,,,,,,,,,,,,,,,,,,,,,,,,,,,,,,,,1.28,3.13,6.50666666666667,1696291203,9,9,9,9,9,2,1
2023-10-03 00:20:02+00:00,,,,,,,,,,,,,,,,,,,,,,,,,,,,,,,,,,,,1.34,3.13,6.52,1696292402,9,9,9,9,9,2,1
2023-10-03 00:40:02+00:00,,,,,,,,,,,,,,,,,,,,,,,,,,,,,,,,,,,,1.4,3.13,6.50666666666667,1696293602,9,9,9,9,9,2,1
2023-10-03 01:00:02+00:00,,,,,,,,,,,,,,,,,,,,,,,,,,,,,,,,,,,,1.46,3.13,6.49333333333333,1696294802,9,9,9,9,9,2,1
2023-10-03 01:20:02+00:00,,,,,,,,,,,,,,,,,,,,,,,,,,,,,,,,,,,,1.22,3.61,6.49333333333333,1696296002,9,9,9,9,9,2,1
2023-10-03 01:40:01+00:00,,,,,,,,,,,,,,,,,,,,,,,,,,,,,,,,,,,,1.46,3.13,6.50666666666667,1696297201,9,9,9,9,9,2,1
2023-10-03 02:00:02+00:00,,,,,,,,,,,,,,,,,,,,,,,,,,,,,,,,,,,,1.52,3.13,6.49333333333333,1696298402,9,9,9,9,9,2,1
2023-10-03 02:20:02+00:00,,,,,,,,,,,,,,,,,,,,,,,,,,,,,,,,,,,,1.46,3.37,6.50666666666667,1696299602,9,9,9,9,9,2,1
2023-10-03 02:40:02+00:00,,,,,,,,,,,,,,,,,,,,,,,,,,,,,,,,,,,,1.83,3.37,6.45333333333333,1696300802,9,9,9,9,9,2,1
2023-10-03 03:00:02+00:00,,,,,,,,,,,,,,,,,,,,,,,,,,,,,,,,,,,,2.13,3.37,6.45333333333333,1696302002,9,9,9,9,9,2,1
2023-10-03 03:20:02+00:00,,,,,,,,,,,,,,,,,,,,,,,,,,,,,,,,,,,,2.56,3.37,6.48,1696303202,9,9,9,9,9,2,1
2023-10-03 03:40:02+00:00,,,,,,,,,,,,,,,,,,,,,,,,,,,,,,,,,,,,2.5,3.13,6.46666666666667,1696304402,9,9,9,9,9,2,1
2023-10-03 04:00:02+00:00,,,,,,,,,,,,,,,,,,,,,,,,,,,,,,,,,,,,2.38,3.37,6.46666666666667,1696305602,9,9,9,9,9,2,1
2023-10-03 04:20:02+00:00,,,,,,,,,,,,,,,,,,,,,,,,,,,,,,,,,,,,2.5,2.41,6.45333333333333,1696306802,9,9,9,9,9,2,1
2023-10-03 04:40:02+00:00,,,,,,,,,,,,,,,,,,,,,,,,,,,,,,,,,,,,2.38,2.89,6.48,1696308002,9,9,9,9,9,2,1
2023-10-03 05:00:02+00:00,,,,,,,,,,,,,,,,,,,,,,,,,,,,,,,,,,,,1.95,3.61,6.48,1696309202,9,9,9,9,9,2,1
2023-10-03 05:20:02+00:00,,,,,,,,,,,,,,,,,,,,,,,,,,,,,,,,,,,,2.19,1.93,6.49333333333333,1696310402,9,9,9,9,9,2,1
2023-10-03 05:40:02+00:00,,,,,,,,,,,,,,,,,,,,,,,,,,,,,,,,,,,,2.19,2.65,6.50666666666667,1696311602,9,9,9,9,9,2,1
2023-10-03 06:00:02+00:00,,,,,,,,,,,,,,,,,,,,,,,,,,,,,,,,,,,,1.83,3.13,6.53333333333333,1696312802,9,9,9,9,9,2,1
2023-10-03 06:20:02+00:00,,,,,,,,,,,,,,,,,,,,,,,,,,,,,,,,,,,,1.64,3.37,6.52,1696314002,9,9,9,9,9,2,1
2023-10-03 06:40:02+00:00,,,,,,,,,,,,,,,,,,,,,,,,,,,,,,,,,,,,1.58,3.37,6.56,1696315202,9,9,9,9,9,2,1
2023-10-03 07:00:02+00:00,,,,,,,,,,,,,,,,,,,,,,,,,,,,,,,,,,,,1.52,3.37,6.58666666666667,1696316402,9,9,9,9,9,2,1
2023-10-03 07:20:02+00:00,,,,,,,,,,,,,,,,,,,,,,,,,,,,,,,,,,,,1.4,3.13,6.53333333333333,1696317602,9,9,9,9,9,2,1
2023-10-03 07:40:02+00:00,,,,,,,,,,,,,,,,,,,,,,,,,,,,,,,,,,,,1.34,3.37,6.50666666666667,1696318802,9,9,9,9,9,2,1
2023-10-03 08:00:02+00:00,,,,,,,,,,,,,,,,,,,,,,,,,,,,,,,,,,,,1.28,3.37,6.53333333333333,1696320002,9,9,9,9,9,2,1
2023-10-03 08:20:02+00:00,,,,,,,,,,,,,,,,,,,,,,,,,,,,,,,,,,,,1.22,3.37,6.53333333333333,1696321202,9,9,9,9,9,2,1
2023-10-03 08:40:02+00:00,,,,,,,,,,,,,,,,,,,,,,,,,,,,,,,,,,,,1.22,3.37,6.50666666666667,1696322402,9,9,9,9,9,2,1
2023-10-03 09:00:02+00:00,,,,,,,,,,,,,,,,,,,,,,,,,,,,,,,,,,,,1.16,3.37,6.52,1696323602,9,9,9,9,9,2,1
2023-10-03 09:20:02+00:00,,,,,,,,,,,,,,,,,,,,,,,,,,,,,,,,,,,,1.16,3.37,6.49333333333333,1696324802,9,9,9,9,9,2,1
2023-10-03 09:40:02+00:00,,,,,,,,,,,,,,,,,,,,,,,,,,,,,,,,,,,,1.16,3.37,6.48,1696326002,9,9,9,9,9,2,1
2023-10-03 10:00:02+00:00,,,,,,,,,,,,,,,,,,,,,,,,,,,,,,,,,,,,1.1,3.37,6.48,1696327202,9,9,9,9,9,2,1
2023-10-03 10:20:02+00:00,,,,,,,,,,,,,,,,,,,,,,,,,,,,,,,,,,,,1.1,3.37,6.48,1696328402,9,9,9,9,9,2,1
2023-10-03 10:40:02+00:00,,,,,,,,,,,,,,,,,,,,,,,,,,,,,,,,,,,,1.1,3.37,6.49333333333333,1696329602,9,9,9,9,9,2,1
2023-10-03 11:00:02+00:00,,,,,,,,,,,,,,,,,,,,,,,,,,,,,,,,,,,,1.1,3.37,6.49333333333333,1696330802,9,9,9,9,9,2,1
2023-10-03 11:20:02+00:00,,,,,,,,,,,,,,,,,,,,,,,,,,,,,,,,,,,,1.16,3.37,6.50666666666667,1696332002,9,9,9,9,9,2,1
2023-10-03 11:40:02+00:00,,,,,,,,,,,,,,,,,,,,,,,,,,,,,,,,,,,,1.46,3.37,6.49333333333333,1696333202,9,9,9,9,9,2,1
2023-10-03 12:00:02+00:00,,,,,,,,,,,,,,,,,,,,,,,,,,,,,,,,,,,,1.83,3.37,6.52,1696334402,9,9,9,9,9,2,1
2023-10-03 12:20:02+00:00,,,,,,,,,,,,,,,,,,,,,,,,,,,,,,,,,,,,1.83,3.37,6.53333333333333,1696335602,9,9,9,9,9,2,1
2023-10-03 12:40:02+00:00,,,,,,,,,,,,,,,,,,,,,,,,,,,,,,,,,,,,1.77,3.37,6.53333333333333,1696336802,9,9,9,9,9,2,1
2023-10-03 13:00:02+00:00,,,,,,,,,,,,,,,,,,,,,,,,,,,,,,,,,,,,1.52,3.37,6.53333333333333,1696338002,9,9,9,9,9,2,1
2023-10-03 13:20:01+00:00,,,,,,,,,,,,,,,,,,,,,,,,,,,,,,,,,,,,,,6.52,1696339201,9,9,9,9,9,9,9
2023-10-03 13:40:02+00:00,,,,,,,,,,,,,,,,,,,,,,,,,,,,,,,,,,,,1.64,3.37,6.52,1696340402,9,9,9,9,9,2,1
2023-10-03 14:00:02+00:00,,,,,,,,,,,,,,,,,,,,,,,,,,,,,,,,,,,,1.58,3.37,6.53333333333333,1696341602,9,9,9,9,9,2,1
2023-10-03 14:20:02+00:00,,,,,,,,,,,,,,,,,,,,,,,,,,,,,,,,,,,,1.46,3.37,6.56,1696342802,9,9,9,9,9,2,1
2023-10-03 14:40:01+00:00,,,,,,,,,,,,,,,,,,,,,,,,,,,,,,,,,,,,1.28,3.37,6.54666666666667,1696344001,9,9,9,9,9,2,1
2023-10-03 15:00:01+00:00,,,,,,,,,,,,,,,,,,,,,,,,,,,,,,,,,,,,1.16,3.37,6.54666666666667,1696345201,9,9,9,9,9,2,1
2023-10-03 15:20:02+00:00,,,,,,,,,,,,,,,,,,,,,,,,,,,,,,,,,,,,1.22,3.61,6.52,1696346402,9,9,9,9,9,2,1
2023-10-03 15:40:02+00:00,,,,,,,,,,,,,,,,,,,,,,,,,,,,,,,,,,,,1.1,3.61,6.52,1696347602,9,9,9,9,9,2,1
2023-10-03 16:00:01+00:00,,,,,,,,,,,,,,,,,,,,,,,,,,,,,,,,,,,,1.16,3.37,6.54666666666667,1696348801,9,9,9,9,9,2,1
2023-10-03 16:20:02+00:00,,,,,,,,,,,,,,,,,,,,,,,,,,,,,,,,,,,,1.16,3.37,6.54666666666667,1696350002,9,9,9,9,9,2,1
2023-10-03 16:40:02+00:00,,,,,,,,,,,,,,,,,,,,,,,,,,,,,,,,,,,,1.4,3.37,6.56,1696351202,9,9,9,9,9,2,1
2023-10-03 17:00:02+00:00,,,,,,,,,,,,,,,,,,,,,,,,,,,,,,,,,,,,1.58,3.37,6.58666666666667,1696352402,9,9,9,9,9,2,1
2023-10-03 17:20:02+00:00,,,,,,,,,,,,,,,,,,,,,,,,,,,,,,,,,,,,1.77,3.37,6.6,1696353602,9,9,9,9,9,2,1
2023-10-03 17:40:02+00:00,,,,,,,,,,,,,,,,,,,,,,,,,,,,,,,,,,,,2.25,3.37,6.58666666666667,1696354802,9,9,9,9,9,2,1
2023-10-03 18:00:02+00:00,,,,,,,,,,,,,,,,,,,,,,,,,,,,,,,,,,,,1.89,3.37,6.61333333333333,1696356002,1,1,1,1,1,1,1
2023-10-03 18:20:02+00:00,,,,,,,,,,,,,,,,,,,,,,,,,,,,,,,,,,,,1.83,3.37,6.61333333333333,1696357202,1,1,1,1,1,1,1
2023-10-03 18:40:02+00:00,,,,,,,,,,,,,,,,,,,,,,,,,,,,,,,,,,,,1.58,3.13,6.62666666666667,1696358402,1,1,1,1,1,1,1
2023-10-03 19:00:02+00:00,,,,,,,,,,,,,,,,,,,,,,,,,,,,,,,,,,,,1.52,3.13,6.62666666666667,1696359602,1,1,1,1,1,1,1
2023-10-03 19:20:02+00:00,,,,,,,,,,,,,,,,,,,,,,,,,,,,,,,,,,,,1.4,3.37,6.62666666666667,1696360802,1,1,1,1,1,1,1
2023-10-03 19:40:02+00:00,,,,,,,,,,,,,,,,,,,,,,,,,,,,,,,,,,,,1.34,3.13,6.6,1696362002,9,9,9,9,9,2,1
2023-10-03 20:00:02+00:00,,,,,,,,,,,,,,,,,,,,,,,,,,,,,,,,,,,,1.22,3.37,6.61333333333333,1696363202,9,9,9,9,9,2,1
2023-10-03 20:20:02+00:00,,,,,,,,,,,,,,,,,,,,,,,,,,,,,,,,,,,,1.22,3.37,6.62666666666667,1696364402,9,9,9,9,9,2,1
2023-10-03 20:40:02+00:00,,,,,,,,,,,,,,,,,,,,,,,,,,,,,,,,,,,,0.91,3.61,6.6,1696365602,1,1,1,1,1,1,1
2023-10-03 21:00:02+00:00,,,,,,,,,,,,,,,,,,,,,,,,,,,,,,,,,,,,1.22,3.13,6.62666666666667,1696366802,1,1,1,1,1,1,1
2023-10-03 21:20:02+00:00,,,,,,,,,,,,,,,,,,,,,,,,,,,,,,,,,,,,1.1,3.37,6.6,1696368002,1,1,1,1,1,1,1
2023-10-03 21:40:02+00:00,,,,,,,,,,,,,,,,,,,,,,,,,,,,,,,,,,,,1.28,3.13,6.6,1696369202,1,1,1,1,1,1,1
2023-10-03 22:00:02+00:00,,,,,,,,,,,,,,,,,,,,,,,,,,,,,,,,,,,,1.28,3.13,6.6,1696370402,1,1,1,1,1,1,1
2023-10-03 22:20:02+00:00,,,,,,,,,,,,,,,,,,,,,,,,,,,,,,,,,,,,1.83,3.13,6.54666666666667,1696371602,1,1,1,1,1,1,1
2023-10-03 22:40:02+00:00,,,,,,,,,,,,,,,,,,,,,,,,,,,,,,,,,,,,2.44,3.13,6.58666666666667,1696372802,1,1,1,1,1,1,1
2023-10-03 23:00:02+00:00,,,,,,,,,,,,,,,,,,,,,,,,,,,,,,,,,,,,,,6.54666666666667,1696374002,1,1,1,1,1,1,1